Location: Allen Fire Department Station 4
(33.1073°N, 96.6988°W)
Time: 22:56:15
(UTC+00:00)

Cosmos 1763 Rocket - Pass Details

Date: 04 July 2022
Orbit: 732 x 780 km, 74.0° (Epoch: 18 August)

Event Time Altitude Azimuth Distance (km) Brightness Sun altitude
Exits shadow 08:01:36 29° 313° (NW) 1,366 4.9 -30.0°
Drops below altitude 10° 08:05:20 10° 355° (N) 2,314 6.7 -29.7°
Sets 08:07:59 0° 6° (N) 3,251 7.8 -29.5°
